Theta_e
348 348 348 347 346 344 344 344 344 344 343 343 343 342 342 342 342 345 347 347 347 346 347 348 348 346 344 343 342 340 339 336 335 334 330 327 324 323 320 319 319 322
349 348 348 348 347 346 344 344 344 344 344 343 343 343 343 342 342 344 347 347 347 346 346 347 347 346 344 343 342 340 338 336 334 333 330 327 325 324 320 316 316 319
349 350 349 349 348 347 346 346 345 345 344 344 344 343 343 342 341 343 346 347 347 346 346 345 346 345 343 343 342 339 337 336 335 332 329 327 325 324 321 317 315 316
349 349 350 349 349 348 348 348 347 345 345 344 343 343 343 343 342 342 345 347 347 347 346 345 344 343 342 343 342 339 337 336 336 334 331 327 325 323 320 318 316 316
348 349 349 349 349 349 349 349 347 346 345 344 343 342 343 342 342 342 343 346 347 347 346 344 344 343 342 343 342 339 337 337 337 336 333 329 326 323 321 319 318 316
348 348 349 349 350 350 349 349 348 346 345 344 343 342 342 342 343 343 342 344 345 347 347 345 344 343 343 342 342 340 337 337 338 336 334 331 328 325 322 321 320 318
348 348 348 349 349 350 349 349 348 346 346 345 343 342 341 341 342 342 342 342 344 345 346 346 343 343 343 342 341 340 337 337 338 336 333 331 329 327 324 322 321 320
349 349 348 348 349 349 349 349 348 347 347 346 344 341 340 340 340 340 340 341 343 344 346 346 344 342 342 342 341 340 338 337 337 336 333 331 329 326 324 323 322 320
349 349 348 349 349 349 349 349 349 348 348 347 345 342 340 339 339 339 338 340 342 344 345 345 344 341 341 342 341 340 339 336 336 336 334 331 328 325 324 324 322 321
349 349 349 349 350 349 349 349 349 349 348 348 347 345 342 338 337 338 337 338 340 343 345 345 344 341 340 341 342 341 340 337 336 337 336 333 330 326 324 323 322 321
349 349 349 350 350 350 350 349 349 349 349 349 348 347 345 340 337 336 336 337 338 341 343 345 345 343 340 339 341 342 341 338 336 336 337 336 333 328 325 323 321 320
349 349 349 349 349 350 350 349 349 349 349 349 349 348 346 342 338 336 335 337 338 340 342 343 344 344 341 339 340 341 341 339 337 337 337 338 336 332 328 324 321 320
348 348 349 349 350 350 350 349 350 350 350 349 349 348 346 341 337 335 335 336 338 339 341 342 343 344 343 341 340 340 341 341 339 337 337 338 338 336 333 328 322 320
348 348 349 349 349 349 350 350 350 350 350 350 350 348 345 340 336 335 336 336 338 340 340 341 342 343 344 344 343 342 342 341 340 338 338 339 339 339 337 332 326 323
349 349 349 350 350 350 350 351 350 350 351 350 350 349 345 339 336 335 336 337 338 339 340 341 342 342 343 344 344 344 343 342 341 340 339 339 340 341 339 336 332 326
350 350 350 350 350 351 351 351 351 351 351 351 350 349 346 342 339 337 337 338 339 340 341 341 342 342 342 343 344 345 344 343 342 341 340 340 340 342 341 340 337 329
350 350 351 350 350 351 351 351 351 351 351 351 351 350 348 346 343 339 337 338 340 341 342 343 343 342 342 342 344 345 345 344 343 342 342 341 341 342 342 342 340 333
351 351 351 351 351 350 351 351 351 351 352 351 351 350 350 349 346 341 338 338 340 342 343 344 343 343 343 342 343 344 345 345 344 344 344 343 342 343 343 343 342 339
351 351 351 351 351 351 351 352 351 352 352 351 351 351 351 351 348 344 341 339 339 340 343 344 344 343 344 344 344 345 345 345 344 345 345 344 344 344 344 343 343 343
351 352 352 351 352 351 352 352 351 352 352 352 352 351 351 351 350 348 346 343 340 339 340 341 342 343 344 345 346 346 346 346 345 345 346 346 345 345 346 345 344 343
352 352 352 352 352 352 353 352 352 352 352 352 352 351 351 352 352 351 349 346 343 342 341 340 340 341 344 346 347 347 347 348 346 346 348 348 347 346 347 347 346 344
353 353 353 353 353 353 353 353 353 353 352 353 352 351 352 352 352 352 351 350 348 347 346 342 340 343 346 348 349 349 349 349 348 348 349 349 348 348 348 347 347 345
352 353 353 353 353 354 354 353 353 353 353 353 353 352 352 352 352 353 353 352 351 350 349 346 345 347 348 349 350 350 350 350 350 349 349 349 348 347 347 346 345 345
352 353 354 354 354 354 354 354 354 354 353 353 353 352 352 352 353 353 354 354 354 353 351 349 349 350 350 350 350 351 351 351 350 349 350 350 348 347 345 345 345 344
352 353 354 354 354 353 353 353 353 354 354 354 354 353 353 354 354 354 354 355 355 354 353 353 352 352 351 351 351 351 351 351 350 350 350 350 350 348 347 347 345 343
352 353 353 353 353 352 353 353 353 354 355 355 354 355 355 355 356 355 355 355 355 355 355 354 354 353 352 352 352 351 351 351 351 351 350 350 350 349 348 347 345 344
Wind_Speed
40 40 40 39 38 37 36 34 32 31 30 29 27 26 26 27 27 27 26 25 24 23 21 20 19 18 18 18 18 17 16 15 14 15 14 13 11 11 10 11 12 14
44 42 41 40 40 38 37 36 34 32 31 29 28 26 26 27 28 28 27 25 25 24 21 20 19 19 19 19 19 18 16 15 15 16 15 13 11 11 10 10 11 13
46 44 43 42 41 40 39 37 36 34 32 30 28 27 27 27 28 28 27 26 25 24 22 21 20 20 20 20 20 19 18 17 16 16 15 13 12 11 10 10 11 14
48 47 45 44 42 41 40 39 37 36 35 32 30 29 28 28 28 28 27 27 26 25 23 21 21 22 21 21 21 21 19 18 17 17 16 14 13 11 10 11 12 14
48 47 46 45 44 42 41 40 38 37 36 34 32 31 30 29 28 28 28 28 27 27 24 23 23 23 22 22 22 22 21 20 19 19 18 16 14 13 12 13 13 14
48 47 46 45 44 43 43 41 39 37 36 34 33 33 32 30 29 29 28 28 28 27 26 25 24 24 23 23 23 23 23 21 21 20 19 18 16 15 14 14 15 15
49 48 46 46 45 45 44 42 39 37 36 34 34 35 35 33 31 30 29 28 28 28 27 26 26 25 24 24 24 24 24 23 22 22 21 19 18 17 17 16 16 16
50 49 47 46 46 46 45 43 41 38 37 36 34 35 36 36 34 32 30 29 29 29 28 28 28 27 26 26 25 25 25 25 24 23 22 20 19 19 19 18 18 17
50 49 48 47 47 47 46 45 42 40 39 38 36 34 35 36 36 34 32 31 31 31 30 29 29 28 28 28 27 26 26 25 25 25 24 22 21 20 19 19 19 18
50 49 49 48 48 47 46 45 42 40 40 39 37 36 35 36 36 36 35 34 33 32 32 31 30 29 29 30 28 27 26 26 26 26 25 23 21 20 19 20 20 20
51 50 50 49 48 47 46 44 41 40 41 40 39 37 36 36 36 37 37 36 35 35 34 32 31 30 30 31 30 29 27 27 27 27 26 25 23 21 20 20 20 21
52 51 51 50 48 47 45 42 40 40 41 41 39 38 37 37 37 38 39 38 37 36 35 34 32 32 31 31 30 30 28 28 27 27 27 26 24 22 21 21 21 21
54 52 51 50 48 46 44 41 40 40 41 41 39 37 38 38 38 39 40 39 38 37 36 35 34 34 33 31 30 30 29 28 28 27 27 27 25 24 22 22 21 21
54 52 51 49 47 46 44 41 40 40 41 41 39 37 38 39 40 40 40 40 39 38 38 37 36 36 35 33 32 30 29 29 28 28 28 27 26 25 24 23 22 22
53 52 50 49 48 47 45 42 40 40 41 41 39 38 38 40 41 41 41 41 41 40 39 39 39 39 37 35 33 31 30 29 29 29 29 28 27 26 25 24 23 22
53 51 51 50 49 48 46 43 42 41 41 41 39 38 38 40 41 42 42 42 41 41 41 41 41 40 38 36 34 33 31 29 29 30 30 29 27 26 26 25 24 24
52 52 51 50 49 48 46 45 43 42 42 41 40 39 39 40 41 43 43 43 43 43 43 42 42 41 38 36 36 34 32 30 29 30 31 30 28 27 26 24 25 26
53 52 51 51 50 48 47 46 44 43 43 42 42 41 40 40 42 44 45 45 44 44 44 43 42 40 38 37 37 35 33 31 29 30 32 30 28 27 25 25 28 29
53 52 52 51 50 49 48 47 46 45 45 44 43 42 42 42 42 44 45 46 46 46 45 44 42 40 39 38 38 37 35 32 30 31 32 29 27 27 26 27 29 29
53 53 52 51 50 49 49 49 48 47 45 45 44 44 45 44 44 44 45 46 47 48 47 46 44 41 40 39 39 38 36 33 31 31 31 28 27 28 28 29 30 29
53 53 52 51 50 50 51 51 50 49 47 46 46 46 47 46 45 45 45 46 47 48 48 48 45 43 42 41 40 38 36 34 32 31 31 29 28 30 30 31 30 30
53 53 52 51 50 51 51 52 52 50 49 48 47 47 47 47 47 46 46 47 47 47 48 48 46 46 45 43 41 38 36 35 33 31 31 30 29 31 31 31 31 31
53 53 52 52 51 51 52 52 52 51 49 49 49 49 49 49 49 48 47 47 48 48 48 48 47 47 46 44 42 39 37 36 33 31 31 30 28 28 29 31 32 33
52 52 52 51 51 51 52 52 52 51 50 50 50 50 50 50 50 48 47 48 48 49 48 47 46 46 46 45 43 40 38 36 33 31 32 31 29 28 28 29 30 32
51 50 50 50 50 50 50 51 50 50 50 51 50 50 50 50 50 49 48 48 49 49 48 46 45 45 46 46 43 40 38 35 32 31 33 33 32 31 29 27 27 29
49 49 50 49 50 50 50 49 49 50 50 50 50 50 50 50 50 49 49 49 49 50 48 46 44 45 47 46 43 40 38 35 32 31 31 32 31 28 28 28 26 27
Wind_Direction
234 236 236 236 236 237 239 239 240 239 239 240 241 243 245 247 247 244 241 237 235 235 237 240 242 243 243 242 242 242 242 241 238 234 232 230 232 237 242 247 247 247
234 235 237 237 237 238 239 240 241 241 240 239 240 241 243 245 246 243 241 237 235 237 239 241 241 241 240 238 239 240 238 238 235 230 227 226 230 237 243 247 248 245
234 235 236 237 238 239 239 240 242 243 242 240 239 239 239 242 244 243 240 237 236 239 242 243 240 239 237 235 237 237 236 236 235 231 227 227 230 239 247 249 247 244
235 236 236 237 238 240 241 242 243 244 243 240 238 236 236 238 241 241 238 237 238 240 244 243 240 238 236 234 235 236 235 234 235 233 228 227 229 236 245 250 249 246
237 237 237 237 238 240 241 242 243 243 243 241 237 234 234 235 236 238 238 237 238 241 243 241 238 236 235 233 233 235 236 234 234 233 228 226 227 231 239 247 250 250
237 238 238 238 238 239 241 242 243 243 243 241 237 234 232 232 234 236 237 237 238 241 242 240 238 236 234 232 232 234 236 235 234 233 230 227 227 229 235 242 248 251
236 237 238 238 238 239 241 242 243 242 242 241 237 234 231 231 232 234 236 237 238 240 241 241 239 237 234 231 231 233 235 235 235 235 232 229 229 231 233 239 246 249
236 237 238 238 238 239 240 241 242 242 242 242 239 235 231 230 232 233 235 236 237 238 240 240 240 237 235 233 232 233 235 235 235 235 234 231 230 230 232 237 244 248
236 237 238 238 238 238 239 240 241 242 243 242 241 237 233 230 231 233 235 236 237 237 238 239 239 237 235 234 234 235 236 237 236 235 236 234 232 232 233 237 241 245
235 236 237 237 237 237 238 240 241 242 243 243 242 240 236 232 231 232 234 236 237 237 237 237 237 236 235 234 235 236 237 238 238 238 238 238 238 238 239 240 242 245
234 235 236 236 237 237 238 239 240 241 242 243 242 241 238 234 232 232 233 235 236 237 237 237 236 236 235 234 235 236 237 239 239 240 241 241 242 243 244 245 246 247
234 235 236 236 237 237 238 239 239 239 241 242 241 241 239 236 232 231 232 234 236 237 237 237 237 237 236 235 235 236 237 238 238 239 241 242 243 245 247 249 249 250
234 235 236 236 237 238 239 239 238 238 239 240 240 240 239 235 232 231 232 234 236 237 237 236 236 237 237 236 235 236 236 237 237 238 239 240 242 244 247 250 252 253
234 235 236 236 237 238 238 238 237 238 239 239 240 239 237 234 231 230 232 234 236 237 237 236 236 237 237 236 235 235 235 236 237 238 238 239 240 242 245 249 252 254
234 234 235 236 236 237 237 237 236 236 238 239 239 238 237 234 232 231 232 234 236 237 237 237 236 237 236 236 235 234 234 234 236 238 239 238 238 241 244 247 252 255
232 233 234 234 234 235 236 235 235 235 237 238 238 238 237 235 234 232 232 233 235 237 237 237 236 236 236 235 235 235 234 234 235 237 238 238 237 239 242 247 252 254
231 231 232 233 234 235 235 235 234 234 235 237 238 237 237 237 236 234 233 233 235 236 237 238 237 237 236 235 235 235 235 235 235 237 238 237 236 237 240 245 249 250
230 230 230 232 233 233 234 234 233 234 235 236 237 237 237 238 237 235 234 234 234 236 237 238 239 238 237 236 236 235 235 234 234 237 238 236 236 237 238 241 245 247
229 229 230 232 233 233 233 233 233 233 234 235 236 237 237 238 238 237 236 235 235 235 237 238 239 239 238 238 237 236 236 235 233 236 237 235 234 234 234 237 242 246
228 229 230 231 232 232 231 232 232 232 233 234 235 236 237 238 238 238 238 237 236 236 237 239 240 240 240 240 239 238 237 236 234 236 238 235 234 235 236 238 243 246
227 228 229 230 231 231 231 232 232 232 232 233 234 236 237 238 239 240 240 239 238 238 239 239 240 241 242 241 241 239 237 236 234 235 238 236 234 236 238 241 246 250
228 227 228 229 230 230 231 231 232 232 232 233 234 235 238 239 239 240 241 241 241 241 241 241 241 242 243 242 241 240 237 235 233 233 235 237 237 238 242 245 249 252
229 228 228 228 229 229 231 232 232 233 233 233 233 235 236 238 238 239 241 242 243 243 242 242 242 243 243 243 242 240 236 234 233 231 230 233 236 239 242 244 245 247
230 229 228 228 228 230 232 232 233 233 233 233 234 235 236 238 238 239 241 242 243 244 244 244 244 245 244 243 242 239 236 234 234 232 229 228 228 228 232 239 241 238
230 229 230 230 232 234 235 235 235 235 234 233 234 236 237 238 239 240 241 242 244 245 245 245 245 245 245 243 242 239 236 234 233 232 230 228 228 228 231 235 233 226
232 232 233 235 237 238 237 237 236 234 234 234 234 236 236 237 239 240 242 243 244 245 245 245 244 245 245 244 241 239 236 233 229 229 231 232 230 228 229 231 225 219